SCP
-0 -0 0 0 0 0 0 0 0 0 0 0 0 0 0 0 0 0 0 0 0 -0 0 0 0 0 0 0 0 0 0 0 0 0 0 0 0 0 0 0 0 0 0 0 0 0 0 0 0
-0 -0 0 0 0 0 0 0 0 0 0 0 0 0 0 0 0 0 0 0 0 -0 0 0 0 0 0 0 0 0 0 0 0 0 0 0 0 0 0 0 0 0 0 0 0 0 0 0 0
0 0 0 0 0 0 0 0 0 0 0 0 0 0 0 0 0 0 0 0 0 -0 0 0 0 0 0 0 0 0 0 0 0 0 0 0 0 0 0 0 0 0 0 0 0 0 0 0 0
0 0 0 0 0 0 0 0 0 0 0 0 0 0 0 0 0 0 0 0 0 -0 0 0 0 0 0 0 0 0 0 0 0 0 0 0 0 0 0 0 0 0 0 0 0 0 0 0 0
0 0 0 0 0 0 0 0 0 0 0 0 0 0 0 0 0 0 0 0 0 -0 0 0 0 0 0 0 0 0 0 0 0 0 0 0 0 0 0 0 0 0 0 0 0 0 0 0 0
0 0 0 0 0 0 0 0 0 0 0 0 0 0 0 0 0 0 0 0 0 0 0 0 0 0 0 0 0 0 0 0 0 0 0 0 0 0 0 0 0 0 0 0 0 0 0 0 0
0 0 0 0 0 0 0 0 0 0 0 0 0 0 0 0 0 0 0 0 0 0 0 0 0 0 0 0 0 0 0 0 0 0 0 0 0 0 0 0 0 0 0 0 0 0 0 0 0
0 0 0 0 0 0 0 0 0 0 0 0 0 0 0 0 0 0 0 0 0 0 0 0 0 0 0 0 0 0 0 0 0 0 0 0 0 0 0 0 0 0 0 0 0 0 0 0 0
0 0 0 0 0 0 0 0 0 0 0 0 0 0 0 0 0 0 0 0 0 0 0 0 0 0 0 0 0 0 0 0 0 0 0 0 0 0 0 0 0 0 0 0 0 0 0 0 0
0 0 0 0 0 0 0 0 0 0 0 0 0 0 0 0 0 0 0 0 0 0 0 0 0 0 0 0 0 0 0 0 0 0 0 0 0 0 0 0 0 0 0 0 0 0 0 0 0
0 0 0 0 0 0 0 0 0 0 0 0 0 0 0 0 0 0 0 0 0 0 0 0 0 0 0 0 0 0 0 0 0 0 0 0 0 0 0 0 0 0 0 0 0 0 0 0 0
0 0 0 0 0 0 0 0 0 0 0 0 0 0 0 0 0 0 0 0 0 0 0 0 0 0 0 0 0 0 0 0 0 0 0 0 0 0 0 0 0 0 0 0 0 0 0 0 0
0 0 0 0 0 0 0 0 0 0 0 0 0 0 0 0 0 0 0 0 0 0 0 0 0 0 0 0 0 0 0 0 0 0 0 0 0 0 0 0 0 0 0 0 0 0 0 0 0
0 0 0 0 0 0 0 0 0 0 0 0 0 0 0 0 0 0 0 0 0 0 0 0 0 0 0 0 0 0 0 0 0 0 0 0 0 0 0 0 0 0 0 0 0 0 0 0 0
0 0 0 0 0 0 0 0 0 0 0 0 0 0 0 0 0 0 0 0 0 0 0 0 0 0 0 0 0 0 0 0 0 0 0 0 0 0 0 0 0 0 0 0 0 0 0 0 0
0 0 0 0 0 0 0 0 0 0 0 0 0 0 0 0 0 0 0 0 0 0 0 0 0 0 0 0 0 0 0 0 0 0 0 0 0 0 0 0 0 0 0 0 0 0 0 0 0
0 0 0 0 0 0 0 0 0 0 0 0 0 0 0 0 0 0 0 0 0 0 0 0 0 0 0 0 0 0 0 0 0 0 0 0 0 0 0 0 0 0 0 0 0 0 0 0 0
0 0 0 0 0 0 0 0 0 0 0 0 0 0 0 0 0 0 0 0 0 0 0 0 0 0 0 0 0 0 0 0 0 0 0 0 0 0 0 0 0 0 0 0 0 0 0 0 0
0 0 0 0 0 0 0 0 0 0 0 0 0 0 0 0 0 0 0 0 0 0 0 0 0 0 0 0 0 0 0 0 0 0 0 0 0 0 0 0 0 0 0 0 0 0 0 0 0
0 0 0 0 0 0 0 0 0 0 0 0 0 0 0 0 0 0 0 0 0 0 0 0 0 0 0 0 0 0 0 0 0 0 0 0 0 0 0 0 0 0 0 0 0 0 0 0 0
0 0 0 0 0 0 0 0 0 0 0 0 0 0 0 0 0 0 0 0 0 0 0 0 0 0 0 0 0 0 0 0 0 0 0 0 0 0 0 0 0 0 0 0 0 0 0 0 0
0 0 0 0 0 0 0 0 0 0 0 0 0 0 0 0 0 0 0 0 0 0 0 0 0 0 0 0 0 0 0 0 0 0 0 0 0 0 0 0 0 0 0 0 0 0 0 0 0
0 0 0 0 0 0 0 0 0 0 0 0 0 0 0 0 0 0 0 0 0 0 0 0 0 0 0 0 0 0 0 0 0 0 0 0 0 0 0 0 0 0 0 0 0 0 0 0 0
0 0 0 0 0 0 0 0 0 0 0 0 0 0 0 0 0 0 0 0 0 0 0 0 0 0 0 0 0 0 0 0 0 0 0 0 0 0 0 0 0 0 0 0 0 0 0 0 0
0 0 0 0 0 0 0 0 0 0 0 0 0 0 0 0 0 0 0 0 0 0 0 0 0 0 0 0 0 0 0 0 0 0 0 0 0 0 0 0 0 0 0 0 0 0 0 0 0
0 0 0 0 0 0 0 0 0 0 0 0 0 0 0 0 0 0 0 0 0 0 0 0 0 0 0 0 0 0 0 0 0 0 0 0 0 0 0 0 0 0 0 0 0 0 0 0 0
0 0 0 0 0 0 0 0 0 0 0 0 0 0 0 0 0 0 0 0 0 0 0 0 0 0 0 0 0 0 0 0 0 0 0 0 0 0 0 0 0 0 0 0 0 0 0 0 0
0 0 0 0 0 0 0 0 0 0 0 0 0 0 0 0 0 0 0 0 0 0 0 0 0 0 0 0 0 0 0 0 0 0 0 0 0 0 0 0 0 0 0 0 0 0 0 0 0
0 0 0 0 0 0 0 0 0 0 0 0 0 0 0 0 0 0 0 0 0 0 0 0 0 0 0 0 0 0 0 0 0 0 0 0 0 0 0 0 0 0 0 0 0 0 0 0 0
0 0 0 0 0 0 0 0 0 0 0 0 0 0 0 0 0 0 0 0 0 0 0 0 0 0 0 0 0 0 0 0 0 0 0 0 0 0 0 0 0 0 0 0 0 0 0 0 0
Wind_Speed
4 3 2 4 6 5 2 3 2 2 3 2 2 5 8 6 4 2 1 9 7 9 11 13 18 16 15 13 12 12 12 11 10 10 10 10 10 10 10 10 10 11 11 11 12 12 12 12 13
1 1 4 6 6 1 4 4 4 5 3 2 3 3 3 2 1 2 2 7 7 11 10 8 18 17 15 14 13 13 12 11 10 10 10 9 9 9 9 10 10 10 11 11 11 11 11 12 12
1 3 4 5 4 5 4 4 5 3 1 2 2 1 3 3 2 3 4 9 8 10 8 10 19 17 16 15 14 13 12 11 10 9 9 9 9 9 9 9 9 10 10 10 10 11 11 11 11
2 4 5 4 4 5 5 3 3 1 0 2 3 2 1 1 1 2 7 10 10 9 7 10 19 17 16 15 14 13 12 11 10 9 9 8 8 8 8 8 8 9 9 9 9 10 10 10 10
4 4 4 1 3 4 4 4 2 2 1 1 4 4 2 0 1 4 9 11 11 9 7 8 18 17 16 16 15 14 12 11 10 9 9 8 8 8 7 7 7 7 8 8 8 9 9 9 9
4 5 4 2 4 4 3 2 2 3 2 2 5 4 3 1 3 5 8 8 9 10 8 7 17 17 16 16 15 14 13 12 10 9 9 8 8 7 6 6 6 6 6 6 7 7 7 7 8
4 4 4 3 2 3 2 1 3 3 3 4 6 5 3 1 3 6 7 7 7 8 7 6 8 11 15 15 14 14 13 12 11 10 8 7 7 6 6 5 4 4 4 4 5 5 6 6 6
4 5 2 1 2 3 2 0 2 4 3 1 5 6 4 2 6 8 7 6 6 6 7 6 5 6 7 9 13 13 13 12 11 9 8 7 6 5 4 4 3 2 2 2 2 3 4 4 5
3 5 2 3 3 3 1 0 1 1 2 1 1 3 0 6 8 8 5 4 6 7 6 6 6 6 6 6 9 11 11 11 10 8 8 7 3 3 2 4 3 2 2 1 1 2 3 4 4
4 3 5 3 3 2 1 1 0 1 1 1 2 1 3 5 8 9 8 9 11 11 9 6 7 6 6 6 5 5 5 5 5 4 5 4 3 2 3 4 4 3 3 3 3 3 3 3 2
4 5 4 3 3 2 1 1 1 2 4 6 7 5 4 5 6 8 8 9 11 10 10 9 8 7 7 5 4 3 3 3 4 5 5 4 3 2 2 1 2 2 2 1 1 2 1 0 1
3 4 3 3 2 2 2 2 2 5 9 6 5 3 5 8 10 10 10 9 7 8 11 10 9 7 7 6 4 4 3 3 3 4 5 4 3 3 2 2 2 2 1 2 1 1 2 2 2
3 3 3 3 3 3 3 4 4 7 8 3 2 3 7 8 8 7 5 5 6 9 11 11 11 10 7 6 4 4 4 4 4 4 5 5 4 4 3 3 2 3 2 3 3 2 3 3 3
3 2 3 3 3 3 4 5 3 10 5 3 4 6 7 8 8 5 6 7 8 9 10 11 12 11 9 7 5 5 4 4 4 4 5 6 4 4 4 4 3 3 3 3 3 3 3 3 3
0 2 5 4 2 2 2 6 8 9 2 5 6 6 7 7 6 7 7 7 8 7 8 11 12 11 10 9 7 5 5 4 4 4 5 5 5 5 4 3 3 3 3 3 2 2 2 2 2
2 2 3 5 2 1 3 9 9 3 3 6 7 6 6 6 6 6 5 5 5 6 8 10 10 11 10 8 7 5 4 4 4 3 3 4 4 4 4 3 3 2 2 2 2 1 1 2 2
2 1 4 6 3 1 3 8 9 2 3 7 7 7 7 6 5 5 4 4 4 6 7 9 9 11 10 8 6 5 4 4 3 3 2 3 3 3 3 3 2 2 2 1 1 1 1 2 2
5 4 4 5 4 1 4 10 13 7 6 9 9 8 7 8 8 4 3 2 3 4 6 8 8 9 8 6 5 4 4 3 2 2 2 3 2 3 3 2 2 2 2 1 1 1 1 1 2
5 4 6 7 5 3 8 13 16 11 8 11 11 10 10 10 5 3 3 3 3 4 6 7 9 9 8 6 5 5 4 3 2 2 3 3 3 3 3 2 2 2 1 1 1 1 0 1 1
4 4 6 8 4 4 7 12 13 10 10 11 11 11 12 8 5 5 4 3 4 5 6 7 9 9 8 6 4 4 4 3 2 2 3 3 3 3 2 3 2 2 1 1 1 1 1 1 1
5 6 7 8 6 3 5 9 9 8 6 7 9 9 9 11 11 8 7 5 5 5 7 7 8 9 8 7 6 5 4 3 2 2 2 2 3 3 3 3 3 2 2 1 1 1 1 0 1
7 8 7 5 3 5 2 7 9 8 9 9 10 8 9 9 9 8 8 7 6 5 5 6 7 8 8 8 8 7 5 4 3 2 2 2 3 3 3 3 3 3 2 2 1 1 1 2 1
8 3 4 3 3 4 2 5 11 7 10 12 9 8 8 9 10 10 9 8 6 5 6 6 7 7 7 7 8 8 5 4 3 3 4 3 3 3 3 3 3 3 2 1 1 1 1 1 2
5 5 4 4 3 5 6 6 10 7 9 8 7 6 7 7 8 8 6 6 5 5 6 6 8 6 6 7 7 8 8 7 6 4 3 2 2 2 3 3 3 2 1 1 0 1 1 1 2
5 5 2 4 1 8 3 5 13 13 8 9 11 8 6 8 9 9 10 9 8 8 7 7 8 7 6 7 7 7 8 8 7 6 4 3 2 1 1 2 1 1 1 0 1 1 1 2 2
7 10 8 6 5 5 3 8 12 11 9 8 8 6 5 8 9 10 11 10 10 9 9 8 8 7 7 7 7 6 7 5 4 5 4 4 3 2 2 2 1 1 0 0 0 1 1 2 3
8 6 7 5 2 4 7 8 12 9 8 5 4 3 6 9 10 10 9 9 10 10 9 9 9 8 7 7 7 6 6 6 5 5 4 3 2 2 2 2 1 0 0 1 1 1 2 2 3
8 9 6 5 4 6 7 6 7 9 9 8 6 5 6 7 8 9 9 9 9 8 7 7 8 8 7 7 7 6 6 5 5 5 5 4 3 3 2 2 1 1 1 1 1 2 3 3 4
6 6 6 6 5 5 5 9 8 8 8 8 8 6 6 8 9 9 9 8 8 7 8 8 8 7 7 7 6 6 5 5 5 5 4 4 3 3 3 2 2 2 2 2 2 3 4 4 5
8 10 10 8 7 5 4 10 7 6 7 6 7 5 4 7 8 8 8 8 8 9 9 9 8 8 8 7 7 7 6 6 5 5 4 4 4 3 3 2 2 3 3 3 4 5 5 5 6
Wind_Direction
352 7 52 56 56 54 234 244 225 240 238 223 155 151 151 160 165 198 296 148 144 151 170 179 168 167 165 160 152 142 134 128 125 119 112 105 98 91 85 79 74 71 67 64 62 60 59 58 57
3 30 54 64 90 120 258 240 221 222 214 114 97 118 134 187 194 148 150 170 152 155 166 174 168 168 167 161 152 145 139 136 131 124 117 111 104 96 89 83 77 72 69 66 63 61 60 59 56
12 48 85 83 126 183 225 223 218 251 199 147 130 141 169 178 180 183 180 158 145 155 165 174 169 169 168 163 157 152 147 144 141 133 125 118 110 101 92 85 80 74 71 68 65 62 60 59 56
78 49 57 88 190 215 223 230 199 281 29 154 148 149 251 216 215 177 140 145 144 155 162 175 170 171 169 166 163 159 155 153 149 142 135 126 116 105 95 89 83 78 73 69 66 63 60 57 54
61 78 72 80 236 246 243 249 201 204 221 176 151 166 233 67 79 124 140 147 150 154 161 176 173 174 172 169 168 165 162 159 156 152 145 135 123 112 103 95 88 80 74 69 65 62 59 55 51
58 70 99 204 253 274 266 231 169 203 218 174 153 167 246 55 126 143 145 146 150 153 158 174 178 178 176 174 172 170 168 166 163 160 155 145 134 126 118 106 95 84 75 68 62 58 54 52 48
105 105 156 196 252 285 274 198 174 187 202 207 167 160 267 281 138 133 129 128 138 150 157 177 182 179 180 178 177 174 174 173 170 169 164 155 146 143 137 123 113 100 83 70 58 50 44 39 37
123 107 133 207 218 262 292 187 170 172 200 160 149 163 228 207 118 107 102 114 135 155 166 177 180 173 174 177 179 178 179 178 176 175 167 160 158 156 150 139 139 128 108 81 54 40 31 26 21
92 80 181 214 204 251 300 68 14 162 122 112 208 206 247 117 118 111 111 129 158 176 182 181 180 173 168 170 180 178 182 182 179 176 170 157 136 128 136 156 185 199 203 215 330 350 0 15 10
95 140 221 223 210 232 290 221 253 99 45 270 272 241 110 135 148 153 166 175 182 189 190 186 182 175 169 173 173 169 172 174 167 156 156 141 139 146 146 182 211 239 256 261 279 310 3 34 12
155 190 229 249 235 227 248 251 221 164 237 226 224 220 165 173 180 184 187 186 191 189 190 189 185 176 173 171 164 161 157 157 156 157 156 150 146 149 148 172 237 258 259 264 304 345 18 345 281
180 230 224 250 231 211 225 240 235 207 227 231 224 201 179 190 198 201 200 197 182 182 193 190 185 180 178 170 167 163 160 160 161 168 164 156 158 174 184 197 213 221 216 217 223 234 254 263 262
208 247 237 244 256 247 246 242 246 248 247 264 252 191 199 206 214 218 212 197 185 191 194 191 187 185 178 170 169 166 169 172 173 173 176 170 173 188 194 206 211 216 209 209 215 228 242 255 262
227 245 281 269 250 238 227 254 232 255 247 236 226 222 220 218 219 215 211 205 200 198 194 190 191 188 178 177 174 172 173 174 174 179 184 182 182 188 196 207 210 218 214 212 214 225 239 252 258
135 338 317 290 252 249 207 281 240 249 209 237 240 237 234 232 226 221 218 213 207 199 190 189 190 185 181 180 177 172 174 171 178 186 188 189 188 193 194 198 210 219 209 206 213 227 229 248 256
66 35 300 291 284 234 166 266 271 265 207 248 252 245 241 239 230 231 230 222 209 191 183 187 185 182 181 178 173 168 167 169 178 179 180 187 190 188 184 192 212 212 189 191 204 213 235 256 266
23 274 260 294 280 183 197 258 277 281 226 255 255 247 242 246 241 232 227 217 204 188 176 175 176 176 174 166 158 150 149 157 161 155 159 171 176 175 170 183 195 177 168 182 200 199 213 262 278
227 228 247 262 280 216 248 262 275 273 245 253 254 247 240 238 235 218 208 197 173 166 162 161 159 161 154 145 134 126 121 127 127 139 149 150 150 150 151 155 160 146 144 162 168 213 221 248 280
189 207 252 260 258 249 257 266 275 273 257 254 250 238 233 234 228 192 175 152 138 142 148 155 154 155 152 151 149 144 144 136 121 112 113 121 121 125 128 128 122 123 142 159 158 172 270 302 340
199 235 263 282 271 225 267 274 272 263 246 239 240 235 228 220 202 191 174 163 158 152 150 150 154 156 159 154 146 136 132 125 116 106 90 90 107 114 121 125 120 118 120 96 94 105 78 350 32
211 212 236 258 308 309 304 295 284 281 259 257 245 236 224 208 200 189 178 172 159 159 159 154 153 151 148 138 123 107 95 89 96 94 85 64 88 97 103 109 111 106 112 110 101 123 137 244 329
233 223 221 249 289 290 329 294 285 277 286 269 253 238 226 209 191 183 178 172 171 167 152 143 143 142 144 145 146 145 144 146 153 137 118 83 76 87 96 102 105 104 104 105 112 125 153 161 243
211 209 192 223 225 281 279 261 280 296 280 274 262 243 229 206 188 182 179 172 161 153 147 141 135 134 140 144 145 138 128 127 121 112 108 90 70 76 89 99 101 102 103 107 102 104 154 178 199
154 87 66 51 78 270 233 220 276 254 245 275 282 259 229 197 180 170 159 148 145 144 142 140 135 133 137 137 139 140 138 137 133 131 125 111 89 74 77 94 96 101 103 105 127 162 193 207 218
131 120 4 321 300 251 229 220 253 254 252 259 275 271 224 187 174 168 166 166 163 161 158 150 143 139 142 139 141 145 145 146 148 149 148 144 136 126 109 100 103 106 122 153 164 191 238 224 228
178 161 175 216 236 278 271 237 255 265 269 266 268 259 201 184 182 182 180 175 171 168 164 158 153 147 149 146 145 143 142 141 144 149 149 155 159 166 158 138 132 135 145 174 182 230 251 236 241
157 194 179 159 211 268 267 278 297 286 289 295 291 251 204 192 188 185 180 178 174 173 173 168 160 153 155 152 145 144 145 145 147 145 143 148 158 161 152 145 145 171 231 247 239 244 260 257 251
159 150 124 151 205 246 268 262 252 277 289 303 293 264 228 197 189 186 183 182 180 175 168 164 162 160 157 154 153 151 151 150 146 144 152 157 161 158 154 158 174 222 255 256 249 257 259 259 260
141 151 153 160 177 190 252 261 232 245 273 288 287 265 222 202 195 191 187 182 174 166 166 168 166 157 157 158 153 147 149 148 146 152 163 165 166 170 177 190 207 236 254 255 250 257 262 260 265
175 176 160 176 211 201 217 265 264 254 273 275 285 274 225 204 196 189 182 174 174 177 176 175 172 168 166 159 152 152 150 150 155 165 172 171 176 187 196 205 227 247 253 254 252 262 264 260 264